QPF
0.00 0.00 0.00 0.00 0.00 0.00 0.00 0.00 0.00 0.00 0.00 0.00 0.00 0.00 0.00 0.00 0.00 0.00 0.00 0.00 0.00 0.00 0.00 0.00 0.00 0.00 0.00 0.00 0.01 0.02 0.00 0.00 0.00 0.00 0.00 0.00 0.00 0.00 0.00 0.00 0.00 0.01 0.01 0.03
0.00 0.00 0.00 0.00 0.00 0.00 0.00 0.00 0.00 0.00 0.00 0.00 0.00 0.00 0.00 0.00 0.00 0.00 0.00 0.00 0.00 0.00 0.00 0.00 0.00 0.00 0.00 0.00 0.01 0.02 0.04 0.02 0.03 0.05 0.00 0.00 0.00 0.00 0.00 0.00 0.00 0.00 0.00 0.00
0.00 0.00 0.00 0.00 0.00 0.00 0.00 0.00 0.00 0.00 0.00 0.00 0.00 0.00 0.00 0.00 0.00 0.00 0.00 0.00 0.00 0.00 0.00 0.00 0.00 0.00 0.00 0.00 0.03 0.03 0.04 0.03 0.02 0.04 0.03 0.00 0.00 0.00 0.01 0.05 0.03 0.01 0.00 0.00
0.00 0.00 0.00 0.00 0.00 0.00 0.00 0.00 0.00 0.00 0.00 0.00 0.00 0.00 0.00 0.00 0.00 0.00 0.00 0.00 0.00 0.00 0.00 0.00 0.00 0.00 0.00 0.00 0.00 0.02 0.02 0.04 0.03 0.00 0.00 0.04 0.02 0.00 0.02 0.04 0.17 0.15 0.03 0.01
0.00 0.00 0.00 0.00 0.00 0.00 0.00 0.00 0.00 0.00 0.00 0.00 0.00 0.00 0.00 0.00 0.00 0.00 0.00 0.00 0.00 0.00 0.00 0.00 0.00 0.00 0.00 0.00 0.00 0.00 0.00 0.00 0.00 0.00 0.00 0.06 0.06 0.05 0.06 0.10 0.07 0.03 0.07 0.01
0.00 0.00 0.00 0.00 0.00 0.00 0.00 0.00 0.00 0.00 0.00 0.00 0.00 0.00 0.00 0.00 0.00 0.00 0.00 0.00 0.00 0.00 0.00 0.00 0.00 0.00 0.00 0.00 0.00 0.00 0.00 0.00 0.00 0.00 0.00 0.00 0.04 0.07 0.05 0.07 0.05 0.03 0.04 0.04
0.00 0.00 0.00 0.00 0.00 0.00 0.00 0.00 0.00 0.00 0.00 0.00 0.00 0.00 0.00 0.00 0.00 0.00 0.00 0.00 0.00 0.00 0.00 0.00 0.00 0.00 0.00 0.00 0.00 0.00 0.00 0.00 0.00 0.00 0.00 0.00 0.00 0.00 0.00 0.01 0.01 0.00 0.00 0.01
0.00 0.00 0.00 0.00 0.00 0.00 0.00 0.00 0.00 0.00 0.00 0.00 0.00 0.00 0.00 0.00 0.00 0.00 0.00 0.00 0.00 0.00 0.00 0.00 0.00 0.00 0.00 0.00 0.00 0.00 0.00 0.00 0.00 0.00 0.00 0.00 0.00 0.00 0.00 0.00 0.00 0.00 0.00 0.00
0.00 0.00 0.00 0.00 0.00 0.00 0.00 0.00 0.00 0.00 0.00 0.00 0.00 0.00 0.00 0.00 0.00 0.00 0.00 0.00 0.00 0.00 0.00 0.00 0.00 0.00 0.00 0.00 0.00 0.00 0.00 0.00 0.00 0.00 0.00 0.01 0.01 0.01 0.01 0.01 0.00 0.00 0.00 0.00
0.00 0.00 0.00 0.00 0.00 0.00 0.00 0.00 0.00 0.00 0.00 0.00 0.00 0.00 0.00 0.00 0.00 0.00 0.00 0.00 0.00 0.00 0.00 0.00 0.00 0.00 0.00 0.00 0.00 0.01 0.00 0.00 0.00 0.00 0.00 0.00 0.00 0.00 0.00 0.00 0.00 0.00 0.00 0.00
0.00 0.00 0.00 0.00 0.00 0.00 0.00 0.00 0.00 0.00 0.00 0.00 0.00 0.00 0.00 0.00 0.00 0.00 0.00 0.00 0.00 0.00 0.00 0.00 0.00 0.00 0.00 0.00 0.00 0.00 0.00 0.00 0.01 0.00 0.00 0.00 0.00 0.00 0.00 0.00 0.00 0.00 0.00 0.00
0.00 0.00 0.00 0.00 0.00 0.00 0.00 0.00 0.00 0.00 0.00 0.00 0.00 0.00 0.00 0.00 0.00 0.00 0.00 0.00 0.00 0.00 0.00 0.00 0.00 0.00 0.00 0.00 0.02 0.01 0.00 0.00 0.00 0.00 0.00 0.00 0.00 0.00 0.00 0.00 0.00 0.00 0.00 0.00
0.00 0.00 0.00 0.00 0.00 0.00 0.00 0.00 0.00 0.00 0.00 0.00 0.00 0.00 0.00 0.00 0.00 0.00 0.00 0.00 0.00 0.00 0.00 0.00 0.00 0.00 0.00 0.02 0.01 0.00 0.00 0.00 0.00 0.00 0.00 0.00 0.00 0.00 0.00 0.00 0.00 0.00 0.00 0.00
0.00 0.00 0.00 0.00 0.00 0.00 0.00 0.00 0.00 0.00 0.00 0.00 0.00 0.00 0.00 0.00 0.00 0.00 0.00 0.00 0.00 0.00 0.00 0.00 0.00 0.00 0.00 0.01 0.00 0.00 0.00 0.00 0.00 0.00 0.00 0.00 0.00 0.00 0.00 0.00 0.00 0.00 0.00 0.00
0.00 0.00 0.00 0.00 0.00 0.00 0.00 0.00 0.00 0.00 0.00 0.00 0.00 0.00 0.00 0.00 0.00 0.00 0.00 0.00 0.00 0.00 0.00 0.00 0.00 0.00 0.00 0.00 0.00 0.00 0.00 0.00 0.00 0.00 0.00 0.00 0.00 0.00 0.00 0.00 0.00 0.00 0.00 0.00
0.00 0.00 0.00 0.00 0.00 0.00 0.00 0.00 0.00 0.00 0.00 0.00 0.00 0.00 0.00 0.00 0.00 0.00 0.00 0.00 0.00 0.00 0.00 0.00 0.00 0.00 0.00 0.00 0.00 0.00 0.00 0.00 0.00 0.00 0.00 0.00 0.00 0.00 0.00 0.00 0.00 0.00 0.00 0.00
0.00 0.00 0.00 0.00 0.00 0.00 0.00 0.00 0.00 0.00 0.00 0.00 0.00 0.00 0.00 0.00 0.00 0.00 0.00 0.00 0.00 0.00 0.00 0.00 0.00 0.00 0.00 0.00 0.00 0.00 0.00 0.00 0.00 0.00 0.00 0.00 0.00 0.00 0.00 0.00 0.00 0.00 0.00 0.00
0.00 0.00 0.00 0.00 0.00 0.00 0.00 0.00 0.00 0.00 0.00 0.00 0.00 0.00 0.00 0.00 0.00 0.00 0.00 0.00 0.00 0.00 0.00 0.00 0.00 0.00 0.00 0.00 0.00 0.00 0.00 0.00 0.00 0.00 0.00 0.00 0.00 0.00 0.00 0.00 0.00 0.00 0.00 0.00
0.00 0.00 0.00 0.00 0.00 0.00 0.00 0.00 0.00 0.00 0.00 0.00 0.00 0.00 0.00 0.00 0.00 0.00 0.00 0.00 0.00 0.00 0.00 0.00 0.00 0.00 0.00 0.00 0.00 0.00 0.00 0.00 0.00 0.00 0.00 0.00 0.00 0.00 0.00 0.00 0.00 0.00 0.00 0.00
0.00 0.00 0.00 0.00 0.00 0.00 0.00 0.00 0.00 0.00 0.00 0.00 0.00 0.00 0.00 0.00 0.00 0.00 0.00 0.00 0.00 0.00 0.00 0.00 0.00 0.00 0.00 0.00 0.00 0.00 0.00 0.00 0.00 0.00 0.00 0.00 0.00 0.00 0.00 0.00 0.00 0.00 0.00 0.00
0.00 0.00 0.00 0.00 0.00 0.00 0.00 0.00 0.00 0.00 0.00 0.00 0.00 0.00 0.00 0.00 0.00 0.00 0.00 0.00 0.00 0.00 0.00 0.00 0.00 0.00 0.00 0.00 0.00 0.00 0.01 0.00 0.00 0.00 0.00 0.00 0.00 0.00 0.00 0.00 0.00 0.00 0.00 0.00
0.00 0.00 0.00 0.00 0.00 0.00 0.00 0.00 0.00 0.00 0.00 0.00 0.00 0.00 0.00 0.00 0.00 0.00 0.00 0.00 0.00 0.00 0.00 0.00 0.00 0.00 0.00 0.00 0.00 0.01 0.01 0.01 0.00 0.00 0.00 0.00 0.00 0.00 0.00 0.00 0.00 0.00 0.00 0.00
0.00 0.00 0.00 0.00 0.00 0.00 0.00 0.00 0.00 0.00 0.00 0.00 0.00 0.00 0.00 0.00 0.00 0.00 0.00 0.00 0.00 0.00 0.00 0.00 0.00 0.00 0.00 0.00 0.01 0.01 0.01 0.00 0.00 0.00 0.00 0.00 0.00 0.00 0.00 0.00 0.00 0.00 0.00 0.00
0.00 0.00 0.00 0.00 0.00 0.00 0.00 0.00 0.00 0.00 0.00 0.00 0.00 0.00 0.00 0.00 0.00 0.00 0.00 0.00 0.00 0.00 0.00 0.00 0.00 0.00 0.00 0.00 0.00 0.01 0.01 0.01 0.01 0.00 0.00 0.00 0.00 0.00 0.00 0.00 0.00 0.00 0.00 0.00
0.00 0.00 0.00 0.00 0.00 0.00 0.00 0.00 0.00 0.00 0.00 0.00 0.00 0.00 0.00 0.00 0.00 0.00 0.00 0.00 0.00 0.00 0.00 0.00 0.00 0.00 0.00 0.00 0.01 0.01 0.00 0.00 0.00 0.01 0.01 0.00 0.00 0.00 0.00 0.00 0.00 0.00 0.00 0.00
0.00 0.00 0.00 0.00 0.00 0.00 0.00 0.00 0.00 0.00 0.00 0.00 0.00 0.00 0.00 0.00 0.00 0.00 0.00 0.00 0.00 0.00 0.00 0.00 0.00 0.00 0.00 0.00 0.00 0.00 0.00 0.00 0.02 0.02 0.02 0.01 0.00 0.00 0.00 0.00 0.00 0.01 0.01 0.01
MSLP
1007.99 1008.70 1008.66 1008.45 1008.61 1008.20 1008.03 1007.70 1007.57 1006.65 1006.51 1007.26 1008.30 1009.12 1010.12 1010.54 1011.05 1011.49 1011.84 1012.03 1012.35 1012.30 1012.97 1013.67 1014.14 1014.57 1014.96 1015.41 1015.90 1016.44 1016.78 1017.03 1017.59 1018.16 1018.55 1018.78 1018.61 1018.63 1018.65 1018.54 1018.51 1018.64 1018.86 1018.99
1008.46 1008.25 1007.54 1007.60 1007.68 1007.77 1007.83 1007.71 1007.35 1007.09 1006.99 1007.69 1009.05 1009.91 1010.42 1010.78 1010.72 1010.84 1011.26 1011.66 1011.88 1012.47 1012.80 1013.34 1013.76 1014.21 1014.56 1014.96 1015.53 1016.15 1016.57 1017.01 1017.44 1017.69 1017.87 1018.02 1018.08 1018.11 1018.06 1018.05 1018.14 1018.12 1018.21 1018.32
1007.90 1007.11 1006.81 1006.93 1007.10 1007.33 1007.42 1007.45 1007.32 1007.50 1007.94 1008.65 1009.50 1010.75 1010.82 1010.96 1011.00 1011.20 1011.26 1011.37 1011.92 1012.11 1012.52 1013.05 1013.52 1013.91 1014.38 1014.76 1015.12 1015.83 1016.26 1016.59 1016.91 1017.26 1017.63 1017.76 1017.78 1017.74 1017.83 1017.77 1017.58 1017.39 1017.54 1017.52
1007.45 1006.46 1006.29 1006.15 1006.39 1006.79 1007.17 1006.95 1007.26 1007.98 1008.94 1009.83 1010.27 1011.81 1011.25 1011.08 1010.99 1011.08 1011.13 1011.29 1011.48 1011.93 1012.42 1012.99 1013.68 1013.90 1014.01 1014.18 1014.77 1015.41 1015.81 1016.10 1016.27 1016.54 1017.01 1017.15 1017.25 1017.25 1016.92 1017.00 1017.08 1017.33 1016.91 1016.99
1006.53 1006.01 1005.73 1005.78 1005.91 1006.34 1006.94 1007.16 1008.07 1008.76 1009.83 1010.67 1011.31 1011.90 1011.24 1011.26 1011.22 1010.93 1010.74 1010.85 1011.32 1011.68 1011.97 1012.51 1013.13 1013.20 1013.60 1013.98 1014.29 1014.52 1014.87 1015.20 1015.58 1016.01 1016.29 1016.52 1016.69 1016.54 1016.35 1016.70 1016.72 1016.81 1016.62 1016.46
1006.25 1005.60 1005.30 1005.18 1005.63 1006.11 1006.92 1008.03 1009.43 1010.54 1011.22 1012.34 1012.20 1012.24 1011.60 1010.98 1009.88 1010.64 1010.74 1010.87 1011.10 1011.58 1011.87 1012.28 1012.70 1013.12 1013.41 1013.60 1013.77 1014.00 1014.39 1014.82 1015.32 1015.62 1015.96 1016.23 1016.29 1016.29 1016.53 1016.43 1016.55 1016.29 1016.00 1016.00
1006.30 1005.67 1005.06 1004.90 1005.71 1006.51 1007.45 1009.32 1011.05 1012.37 1013.07 1013.03 1012.45 1012.41 1010.90 1010.00 1009.84 1009.91 1010.30 1010.76 1011.06 1011.45 1011.82 1012.24 1012.74 1012.98 1013.06 1013.13 1013.42 1013.87 1014.22 1014.51 1015.00 1015.35 1015.60 1015.79 1015.84 1015.93 1015.92 1015.78 1015.67 1015.60 1015.48 1015.34
1006.89 1006.22 1005.30 1004.93 1005.48 1006.67 1008.21 1009.56 1011.53 1013.22 1014.36 1013.76 1012.75 1012.17 1010.63 1009.89 1009.54 1009.81 1010.42 1010.64 1011.12 1011.47 1011.58 1012.04 1012.41 1012.57 1012.76 1012.97 1013.41 1013.79 1014.19 1014.43 1014.69 1015.01 1015.03 1015.20 1015.38 1015.60 1015.59 1015.46 1015.32 1015.28 1015.10 1014.78
1006.98 1006.36 1005.48 1005.30 1005.54 1006.41 1008.60 1010.07 1011.39 1013.17 1014.82 1014.63 1013.51 1012.03 1010.69 1010.15 1010.17 1010.16 1010.87 1011.07 1011.31 1011.50 1011.76 1012.02 1012.28 1012.36 1012.64 1012.93 1013.27 1013.61 1013.99 1014.21 1014.41 1014.62 1014.81 1015.06 1015.22 1015.38 1015.29 1014.97 1014.92 1014.74 1014.54 1014.35
1006.55 1006.71 1006.19 1005.89 1005.93 1006.98 1007.78 1009.93 1011.74 1013.33 1014.88 1015.28 1014.08 1012.94 1011.68 1011.03 1011.01 1010.94 1011.30 1011.50 1011.59 1011.88 1012.06 1012.26 1012.39 1012.48 1012.77 1013.01 1013.39 1013.69 1013.96 1014.21 1014.31 1014.49 1014.78 1014.94 1014.86 1014.69 1014.59 1014.49 1014.32 1014.16 1013.93 1013.82
1006.87 1007.12 1007.29 1006.77 1007.13 1007.76 1009.01 1010.37 1012.22 1013.78 1014.78 1015.22 1014.95 1012.95 1010.91 1010.72 1010.54 1010.60 1010.83 1011.05 1011.53 1011.93 1012.16 1012.31 1012.46 1012.66 1012.90 1013.18 1013.48 1013.81 1014.04 1014.14 1014.26 1014.51 1014.55 1014.55 1014.37 1014.20 1014.10 1014.06 1013.79 1013.60 1013.45 1013.28
1007.01 1008.11 1008.59 1008.37 1008.12 1008.23 1008.74 1010.05 1011.51 1013.64 1015.17 1015.27 1014.47 1012.26 1010.67 1010.50 1010.46 1010.67 1010.92 1011.18 1011.55 1011.83 1012.05 1012.33 1012.49 1012.85 1013.15 1013.43 1013.66 1013.85 1014.05 1014.08 1014.14 1014.22 1014.36 1014.42 1014.21 1014.08 1014.09 1013.89 1013.58 1013.29 1013.03 1012.69
1006.89 1008.59 1009.75 1009.53 1009.26 1008.69 1009.27 1010.24 1011.33 1012.54 1013.58 1014.57 1014.26 1012.31 1010.72 1010.37 1010.46 1010.78 1011.25 1011.51 1011.84 1012.17 1012.53 1012.71 1012.98 1013.22 1013.45 1013.99 1014.06 1014.01 1014.11 1014.12 1014.15 1014.40 1014.65 1014.49 1014.29 1014.08 1013.76 1013.44 1013.12 1012.86 1012.58 1012.26
1006.29 1008.98 1009.33 1009.42 1008.81 1009.01 1009.80 1010.27 1010.98 1011.69 1013.26 1013.99 1013.47 1012.29 1011.05 1010.67 1010.78 1010.85 1011.13 1011.48 1011.88 1012.38 1012.64 1012.92 1013.35 1013.55 1013.82 1014.16 1014.25 1014.19 1014.27 1014.34 1014.36 1014.04 1014.13 1014.09 1013.80 1013.42 1013.12 1012.82 1012.60 1012.33 1012.09 1011.81
1007.20 1009.32 1009.95 1009.95 1009.39 1009.07 1009.52 1009.99 1010.53 1011.20 1011.96 1012.58 1012.52 1012.40 1011.32 1010.91 1010.99 1011.09 1011.20 1011.76 1012.26 1012.64 1012.96 1013.23 1013.53 1013.82 1013.94 1014.11 1014.26 1014.18 1014.11 1013.92 1013.65 1013.89 1013.89 1013.61 1013.26 1013.01 1012.69 1012.28 1011.84 1011.74 1011.55 1011.23
1008.25 1010.38 1010.51 1011.03 1010.26 1009.83 1010.01 1010.06 1010.19 1010.80 1011.54 1011.92 1012.10 1012.14 1011.17 1010.96 1011.07 1011.42 1011.76 1012.12 1012.50 1012.88 1013.22 1013.46 1013.75 1014.07 1014.19 1014.09 1013.95 1013.84 1013.64 1013.45 1013.70 1013.85 1013.78 1013.35 1012.97 1012.56 1012.21 1011.72 1011.24 1010.99 1010.91 1010.70
1009.28 1010.68 1011.77 1012.30 1011.44 1010.76 1010.73 1010.11 1010.14 1010.73 1011.14 1011.54 1012.16 1011.68 1011.71 1011.72 1011.91 1012.00 1012.23 1012.49 1012.86 1013.24 1013.60 1013.89 1014.08 1014.00 1013.84 1013.72 1013.55 1013.48 1013.24 1013.35 1013.41 1013.45 1013.23 1012.92 1012.50 1011.99 1011.53 1011.13 1010.75 1010.43 1010.34 1010.17
1009.64 1011.20 1012.24 1013.51 1012.53 1012.04 1010.56 1009.95 1009.95 1010.53 1011.13 1011.34 1011.66 1011.83 1011.95 1012.18 1012.27 1012.16 1012.41 1012.70 1013.12 1013.38 1013.59 1013.73 1013.76 1013.73 1013.61 1013.25 1013.08 1013.16 1013.25 1013.21 1013.29 1013.34 1012.98 1012.61 1012.18 1011.70 1011.08 1010.71 1010.32 1010.00 1010.01 1009.80
1009.35 1011.04 1013.32 1013.91 1013.60 1012.78 1011.09 1010.36 1010.29 1010.45 1011.37 1011.34 1011.68 1012.16 1012.17 1012.34 1012.31 1012.82 1012.56 1012.53 1012.74 1013.07 1013.34 1013.47 1013.59 1013.62 1013.47 1013.37 1013.10 1013.33 1013.30 1013.27 1013.37 1012.87 1012.52 1012.07 1011.76 1011.25 1010.70 1010.27 1010.10 1009.80 1009.52 1009.39
1010.35 1010.82 1012.47 1014.42 1014.05 1013.02 1010.84 1009.69 1009.59 1010.01 1011.22 1011.07 1011.67 1012.36 1012.47 1012.55 1013.32 1013.19 1012.66 1012.84 1013.06 1013.31 1013.52 1013.66 1013.80 1013.78 1013.75 1013.37 1013.27 1013.34 1013.13 1013.00 1012.63 1012.38 1011.95 1011.50 1011.19 1010.98 1010.54 1010.13 1009.99 1009.51 1009.19 1008.86
1011.65 1012.69 1013.57 1014.31 1013.82 1012.49 1010.73 1010.11 1009.88 1010.80 1011.28 1010.86 1011.49 1011.95 1012.39 1012.83 1013.01 1012.97 1012.92 1013.10 1013.37 1013.72 1013.93 1013.98 1014.00 1014.05 1013.76 1013.38 1013.26 1013.12 1012.73 1012.51 1011.98 1011.77 1011.50 1011.13 1010.69 1010.55 1010.40 1009.82 1009.65 1009.27 1008.72 1008.40
1012.01 1013.07 1014.18 1014.64 1013.91 1012.55 1011.16 1010.61 1010.77 1010.97 1011.05 1011.15 1011.72 1012.14 1012.58 1012.75 1012.83 1013.00 1013.34 1013.75 1014.05 1014.25 1014.25 1014.39 1014.57 1014.39 1013.96 1013.53 1013.20 1012.67 1012.34 1011.88 1011.73 1011.39 1011.00 1010.65 1010.52 1010.08 1009.90 1009.48 1009.10 1008.72 1008.31 1007.91
1012.29 1012.44 1013.02 1013.66 1012.88 1012.15 1011.66 1011.26 1011.03 1011.05 1011.14 1011.77 1012.01 1012.33 1012.50 1012.92 1013.24 1013.67 1014.14 1014.46 1014.77 1014.95 1014.98 1014.88 1014.74 1014.34 1013.85 1013.38 1013.00 1012.54 1011.66 1011.56 1011.28 1010.91 1010.50 1010.24 1010.05 1009.69 1009.48 1009.10 1008.70 1008.30 1007.81 1007.44
1012.42 1012.52 1012.97 1013.34 1012.93 1012.55 1012.14 1011.65 1011.44 1011.46 1011.69 1012.01 1012.30 1012.68 1013.06 1013.44 1013.90 1014.36 1014.68 1015.04 1015.13 1014.96 1014.84 1014.76 1014.51 1014.18 1013.67 1013.02 1012.62 1012.37 1011.70 1011.08 1010.72 1010.45 1010.08 1009.92 1009.73 1009.33 1008.99 1008.55 1008.20 1007.73 1007.24 1006.81
1012.38 1012.51 1013.26 1013.70 1013.27 1012.93 1012.65 1012.53 1012.53 1012.43 1012.46 1012.69 1012.95 1013.27 1013.63 1013.95 1014.36 1014.72 1015.10 1015.36 1015.42 1015.39 1015.08 1014.87 1014.63 1014.16 1013.48 1012.99 1012.49 1011.95 1011.38 1010.84 1010.38 1010.09 1009.77 1009.54 1009.33 1009.07 1008.61 1008.10 1007.62 1007.11 1006.50 1006.38
1012.07 1012.31 1012.78 1013.13 1012.68 1012.87 1013.05 1013.03 1012.89 1012.99 1013.26 1013.47 1013.68 1014.04 1014.28 1014.49 1014.89 1015.12 1015.41 1015.53 1015.60 1015.45 1015.20 1014.80 1014.43 1014.07 1013.54 1013.04 1012.54 1011.92 1011.35 1010.73 1010.26 1009.87 1009.50 1009.30 1009.10 1008.64 1008.26 1007.70 1006.87 1006.25 1005.96 1005.64
Thickness
5817 5795 5783 5798 5799 5806 5805 5799 5793 5817 5827 5810 5807 5804 5803 5810 5808 5804 5804 5804 5802 5802 5802 5796 5792 5788 5786 5783 5779 5775 5772 5771 5767 5761 5758 5755 5756 5757 5757 5756 5756 5754 5752 5750
5799 5785 5812 5816 5810 5805 5798 5793 5797 5812 5821 5809 5796 5793 5801 5806 5810 5812 5809 5806 5807 5803 5801 5797 5795 5792 5789 5786 5782 5776 5774 5771 5768 5765 5764 5762 5761 5761 5759 5759 5757 5757 5755 5755
5790 5814 5824 5818 5810 5803 5803 5793 5800 5802 5807 5802 5794 5779 5793 5805 5811 5811 5811 5813 5810 5807 5803 5798 5796 5794 5792 5787 5784 5779 5775 5773 5772 5769 5765 5762 5762 5761 5759 5760 5762 5762 5760 5760
5799 5822 5819 5819 5813 5804 5792 5817 5813 5803 5785 5759 5788 5739 5777 5794 5799 5804 5807 5808 5810 5809 5808 5801 5793 5791 5792 5792 5788 5783 5779 5775 5775 5773 5767 5765 5763 5761 5765 5763 5763 5762 5763 5760
5805 5815 5816 5809 5813 5815 5805 5817 5807 5802 5777 5772 5770 5746 5769 5788 5788 5796 5803 5811 5811 5810 5810 5803 5797 5798 5796 5792 5789 5788 5785 5782 5778 5774 5770 5767 5764 5765 5766 5763 5762 5762 5762 5761
5810 5828 5825 5820 5823 5823 5814 5799 5781 5767 5758 5739 5763 5751 5756 5772 5800 5797 5806 5809 5809 5809 5808 5805 5802 5798 5796 5796 5792 5789 5785 5781 5777 5773 5768 5764 5762 5762 5758 5759 5759 5761 5762 5761
5804 5811 5825 5832 5811 5814 5799 5767 5730 5741 5726 5732 5758 5748 5768 5794 5805 5808 5805 5805 5807 5808 5805 5800 5796 5794 5794 5795 5792 5788 5783 5778 5775 5770 5766 5764 5761 5760 5759 5759 5759 5759 5758 5758
5769 5770 5811 5828 5815 5795 5784 5774 5732 5730 5716 5730 5752 5750 5770 5797 5808 5811 5809 5807 5805 5803 5804 5799 5797 5796 5794 5793 5788 5783 5777 5774 5773 5769 5766 5763 5760 5757 5756 5756 5756 5755 5755 5756
5765 5778 5817 5820 5820 5813 5783 5762 5771 5727 5717 5720 5732 5760 5788 5792 5794 5799 5794 5797 5796 5797 5795 5794 5795 5794 5790 5787 5782 5779 5774 5771 5768 5765 5763 5759 5756 5752 5751 5752 5752 5752 5752 5752
5790 5772 5800 5810 5816 5804 5799 5780 5750 5729 5722 5720 5722 5736 5748 5776 5778 5784 5782 5784 5787 5788 5788 5788 5787 5786 5783 5780 5774 5771 5767 5762 5761 5760 5756 5752 5751 5751 5750 5749 5747 5746 5746 5745
5787 5777 5782 5799 5786 5778 5776 5761 5739 5730 5719 5706 5703 5728 5771 5776 5780 5781 5785 5788 5783 5782 5782 5782 5780 5779 5776 5772 5768 5762 5757 5754 5751 5749 5748 5747 5746 5744 5742 5740 5741 5741 5740 5739
5789 5760 5751 5772 5782 5786 5786 5768 5751 5724 5723 5704 5708 5729 5783 5776 5781 5782 5781 5781 5780 5780 5779 5776 5775 5769 5765 5761 5756 5752 5750 5748 5745 5742 5739 5736 5735 5733 5730 5730 5730 5730 5730 5731
5786 5751 5727 5739 5758 5780 5769 5765 5745 5732 5721 5708 5705 5723 5776 5778 5778 5776 5773 5773 5773 5771 5766 5764 5761 5758 5755 5747 5746 5745 5743 5739 5735 5730 5724 5722 5720 5720 5720 5720 5720 5719 5719 5719
5791 5746 5747 5736 5750 5757 5753 5761 5751 5743 5715 5709 5709 5733 5761 5770 5767 5769 5770 5769 5766 5762 5758 5755 5750 5747 5743 5738 5734 5733 5728 5725 5721 5720 5717 5714 5714 5713 5712 5711 5709 5708 5707 5708
5780 5748 5749 5748 5762 5765 5759 5757 5753 5749 5735 5728 5732 5728 5748 5755 5759 5764 5765 5761 5756 5751 5748 5744 5740 5736 5733 5729 5724 5722 5719 5717 5716 5710 5706 5705 5704 5703 5701 5701 5700 5698 5696 5696
5764 5735 5748 5737 5751 5754 5747 5750 5751 5750 5734 5735 5732 5727 5748 5754 5752 5749 5747 5745 5743 5740 5738 5735 5731 5726 5722 5720 5717 5715 5711 5708 5703 5697 5693 5693 5692 5692 5691 5691 5691 5689 5686 5684
5747 5731 5725 5717 5731 5738 5721 5737 5742 5740 5740 5734 5719 5733 5738 5741 5740 5738 5735 5734 5730 5728 5725 5722 5719 5716 5715 5712 5711 5707 5703 5698 5692 5686 5684 5682 5680 5680 5681 5680 5679 5677 5674 5672
5735 5721 5708 5695 5711 5692 5728 5741 5748 5735 5731 5730 5733 5732 5734 5730 5730 5733 5732 5726 5721 5717 5715 5713 5709 5707 5705 5704 5701 5695 5690 5684 5678 5673 5669 5667 5666 5666 5667 5666 5665 5664 5661 5659
5739 5719 5691 5687 5680 5697 5722 5732 5727 5726 5714 5729 5724 5723 5724 5725 5725 5718 5724 5723 5719 5714 5709 5704 5700 5697 5694 5690 5687 5680 5676 5669 5662 5660 5656 5654 5651 5652 5653 5653 5651 5650 5649 5647
5722 5717 5705 5672 5681 5671 5706 5735 5740 5733 5697 5726 5718 5712 5713 5714 5692 5695 5713 5712 5708 5704 5698 5695 5690 5685 5680 5678 5673 5667 5663 5655 5650 5644 5642 5640 5637 5635 5636 5637 5636 5637 5639 5638
5691 5683 5681 5667 5673 5681 5712 5725 5733 5695 5694 5720 5716 5711 5705 5699 5695 5699 5703 5700 5696 5689 5683 5679 5674 5669 5667 5665 5658 5653 5649 5640 5637 5633 5628 5624 5623 5622 5621 5624 5625 5628 5630 5630
5688 5673 5664 5653 5662 5669 5706 5717 5702 5705 5709 5711 5707 5703 5697 5697 5698 5696 5690 5682 5676 5671 5667 5662 5656 5653 5651 5647 5641 5639 5633 5629 5624 5622 5619 5616 5613 5614 5614 5616 5618 5620 5623 5624
5677 5678 5669 5668 5666 5686 5692 5699 5702 5701 5699 5699 5696 5695 5691 5687 5682 5677 5668 5665 5658 5654 5649 5645 5640 5637 5634 5631 5628 5626 5627 5620 5617 5613 5612 5610 5608 5609 5608 5609 5612 5614 5616 5619
5672 5670 5664 5668 5679 5681 5683 5691 5694 5696 5693 5691 5688 5683 5678 5673 5665 5656 5652 5646 5643 5640 5637 5634 5629 5626 5624 5625 5622 5618 5615 5613 5611 5608 5607 5605 5604 5604 5604 5605 5607 5610 5612 5614
5663 5667 5656 5655 5667 5672 5674 5673 5674 5676 5676 5674 5671 5669 5662 5657 5652 5647 5639 5635 5632 5627 5624 5621 5618 5617 5617 5617 5615 5613 5610 5607 5607 5605 5603 5601 5600 5598 5599 5601 5602 5605 5609 5609
5660 5656 5650 5648 5663 5660 5662 5664 5667 5665 5663 5661 5659 5653 5649 5644 5639 5636 5629 5624 5620 5616 5613 5613 5612 5610 5610 5609 5606 5605 5603 5602 5601 5601 5599 5595 5592 5593 5593 5595 5600 5603 5603 5605